Location: Gälforsberget
(66.6500°N, 22.4167°E)
Time: 10:20:00
(UTC+00:00)

Cosmos 968 Rocket - Pass Details

Date: 11 April 2026
Orbit: 735 x 766 km, 74.0° (Epoch: 18 May)

Event Time Altitude Azimuth Distance (km) Brightness Sun altitude
Rises 23:15:25 0° 320° (NW) 3,207 7.3 -14.3°
Reaches altitude 10° 23:17:48 10° 316° (NW) 2,284 6.4 -14.3°
Maximum altitude 23:22:51 56° 240° (WSW) 900 3.6 -14.2°
Enters shadow 23:26:39 18° 167° (SSE) 1,820 4.9 -14.1°
